Find Starlink 3299

NORAD ID: 50831 Int'l Des: 2022-001 Owner: SPXS Country: US Constellation: starlink operational
LEOCIRCULAR

Live Position

Loading 3D Globe...

About Starlink 3299

Description loading...

Upcoming Passes

Passes for default location (London). Set your location on the main map for personalized predictions.

Altitude History

Loading altitude history...

Two-Line Element Set

1 50831U 22001AE 26126.35736029 .00000826 00000-0 70023-4 0 9996
2 50831 53.2169 270.3073 0001736 95.7013 264.4177 15.08833609239119
Epoch: May 6, 2026 • Age: 13 hours

Current Status

Altitude 544.7 km
Velocity 7.60 km/s
Sub-Earth Point 51.15°N, 170.6°W
Launch Date Jan 6, 2022
Age 4.3 years
Type internet

Technical Details

Classification Payload
Mass 297.00 kg
Dry Mass 275.00 kg
Total Mass 297.00 kg
Length 0.20 m
Diameter 2.80 m
Span 9.00 m
Shape Box + pan
Manufacturer SPXS
Bus Type Starlink
Phase Status In Orbit
Owner/State SPXS/US

Most Searched